Temperature
17 17 17 17 17 17 17 17 17 17 17 17 17 18 18 18 18 18 18 18 18 18 18 18 18 18 18 18 18 18 18 18 18 18 18 18 18 18 18 18 18 18 18
17 17 17 17 17 17 17 17 17 17 17 17 17 17 18 18 18 18 18 18 18 18 18 18 18 18 18 18 18 18 18 18 18 18 18 18 18 18 18 18 18 18 18
17 17 17 17 17 17 17 17 17 17 17 17 17 17 17 17 17 17 18 18 18 18 18 18 18 18 18 18 18 18 18 18 18 18 18 17 17 18 18 18 18 18 18
17 17 17 17 17 17 17 17 17 17 17 17 17 17 17 17 17 17 17 17 17 17 17 17 17 17 17 17 17 17 17 17 18 18 17 17 17 17 18 18 18 18 18
17 17 17 17 17 17 17 17 17 17 17 17 17 17 17 17 17 17 17 17 17 17 17 17 17 17 17 17 17 17 17 17 17 17 17 17 17 17 17 18 18 18 18
17 17 17 17 17 17 17 17 17 17 17 17 17 17 17 17 17 17 17 17 17 17 17 17 17 17 17 17 17 17 17 17 17 17 17 17 17 17 17 17 17 17 17
17 17 17 17 17 17 17 17 17 17 17 17 17 17 17 17 17 17 17 17 17 17 17 17 17 17 17 17 17 17 17 17 16 17 17 17 17 17 17 17 17 17 17
17 17 17 17 17 17 17 17 17 17 16 16 16 16 17 17 17 17 16 16 16 17 17 17 17 16 16 16 17 17 17 16 16 16 16 16 17 17 17 17 17 17 17
17 17 17 17 17 17 17 17 16 16 16 16 16 16 16 16 16 16 16 16 16 16 16 16 16 16 16 16 16 17 17 16 16 16 16 16 16 17 17 17 17 17 16
17 17 17 17 16 16 16 16 16 16 16 16 16 16 16 16 16 16 16 16 16 16 16 16 16 16 16 16 16 16 16 16 16 16 16 16 16 16 16 16 16 16 16
17 17 17 17 16 16 16 16 16 16 16 16 16 16 16 16 16 16 16 16 16 16 16 16 16 16 16 16 16 16 16 16 16 16 16 16 16 16 16 16 16 16 16
18 17 17 17 17 16 16 16 16 16 16 16 16 16 16 16 16 16 16 16 16 16 16 16 16 16 16 15 16 16 15 15 15 15 15 16 16 16 16 16 16 16 16
18 17 17 17 17 16 16 16 16 16 16 16 16 16 16 16 16 16 16 16 16 15 15 15 15 15 15 15 15 15 15 15 15 15 15 15 15 15 15 15 15 15 15
18 18 17 17 17 17 16 16 16 16 16 16 16 16 16 16 16 16 16 16 15 15 15 15 15 15 15 15 15 15 15 15 15 15 15 15 15 15 15 15 15 15 15
18 18 17 17 17 17 17 16 16 16 16 16 16 16 16 16 16 16 15 15 15 15 15 15 15 15 15 15 15 15 15 15 15 14 15 15 15 15 15 15 15 15 15
18 18 17 17 17 17 17 17 16 16 16 16 16 16 16 16 15 15 15 15 15 15 15 15 15 15 15 15 15 15 15 15 14 14 14 15 15 15 15 15 15 15 15
19 18 18 17 17 17 17 17 16 16 16 16 16 16 16 15 15 15 15 15 15 15 15 15 15 15 15 14 14 14 14 14 14 14 14 14 14 15 15 15 15 15 15
19 18 18 17 17 17 17 16 16 16 16 16 16 16 16 16 15 15 15 15 15 15 15 15 15 14 14 14 14 14 14 14 14 14 14 14 14 14 14 14 14 14 14
18 18 18 18 17 17 17 16 16 16 16 16 16 15 15 15 15 15 15 15 15 15 15 14 14 14 14 14 14 14 14 14 14 14 14 14 14 14 14 14 14 14 14
18 18 18 18 17 17 17 16 16 16 16 16 15 15 15 15 15 15 15 15 14 14 14 14 14 14 14 14 14 14 14 14 14 14 13 14 14 14 14 14 14 14 14
18 18 18 18 17 17 16 16 16 16 16 15 15 15 15 15 15 15 15 14 14 14 14 14 14 14 14 14 14 14 14 14 14 14 13 13 13 13 13 14 13 13 13
18 18 18 18 17 17 17 16 16 16 15 15 15 15 15 15 15 15 14 14 14 14 14 14 14 14 13 13 14 14 14 14 13 13 13 13 13 13 13 13 13 13 13
18 18 18 18 17 17 17 16 16 16 15 15 15 15 15 15 15 14 14 14 14 14 14 14 14 13 13 13 13 14 14 15 14 13 13 13 13 13 13 13 13 13 13
18 18 18 17 17 17 16 16 16 16 15 15 15 15 15 15 14 14 14 14 14 14 14 13 13 13 13 13 13 13 13 13 14 14 13 13 13 13 13 13 13 13 13
18 18 17 17 17 17 16 16 16 15 15 15 15 15 15 14 14 14 14 14 14 14 13 13 13 13 13 13 13 13 13 13 13 14 14 13 13 13 13 12 12 12 12
18 18 17 17 17 17 16 16 16 15 15 15 15 15 15 14 14 14 14 14 14 13 13 13 13 13 13 13 13 13 13 13 13 13 13 13 13 13 12 12 12 12 12
Wind_Speed
3 4 5 4 4 4 5 5 5 6 6 6 7 7 7 7 7 6 6 6 6 6 6 6 7 7 7 7 6 6 6 6 7 7 7 6 6 6 6 6 5 6 8
3 4 4 4 4 5 5 5 6 7 7 7 8 7 7 7 7 6 6 6 6 6 6 7 7 7 7 7 7 6 6 6 7 7 6 6 6 6 5 5 4 6 7
3 4 4 5 5 5 6 6 7 7 8 8 8 8 7 7 7 6 6 6 6 6 7 7 8 8 8 8 7 6 6 7 7 6 5 5 6 7 5 5 6 6 6
4 5 7 7 6 7 7 7 7 7 8 8 8 8 8 8 7 7 7 6 6 7 7 8 8 8 8 8 6 5 5 6 6 4 4 4 4 8 6 5 6 5 5
5 6 8 7 7 7 7 7 7 8 8 9 9 9 9 9 9 9 9 9 7 7 8 8 8 8 8 7 7 6 6 7 5 2 3 4 4 7 6 5 5 4 5
5 6 8 7 7 7 8 8 8 8 9 9 9 9 9 9 9 10 9 9 9 9 9 9 9 9 8 8 8 8 8 6 3 4 3 3 4 7 6 5 5 5 5
5 6 8 8 8 8 8 8 8 9 9 10 10 10 10 10 10 9 9 9 9 9 9 9 9 9 9 9 8 8 8 5 4 4 4 4 6 7 6 5 5 5 4
5 5 7 8 8 9 8 8 9 10 10 11 11 11 11 10 10 10 9 9 9 9 9 8 8 9 9 9 8 8 7 3 5 5 5 5 7 6 6 5 5 5 5
5 5 6 6 8 8 9 9 10 10 11 11 12 11 11 11 11 10 9 9 8 9 8 8 8 8 9 9 8 8 7 5 4 5 5 6 7 5 5 5 5 5 6
5 5 5 6 6 7 8 10 9 9 10 10 11 10 9 9 9 8 8 9 9 9 8 8 9 9 10 10 9 8 5 2 6 6 5 8 8 6 6 6 6 7 7
4 4 4 5 6 6 7 8 7 7 7 6 8 7 4 6 8 8 10 10 10 10 10 10 10 10 9 10 9 6 3 5 6 6 6 9 7 7 7 7 7 7 7
4 4 4 4 5 6 6 6 5 6 6 6 6 5 6 7 7 8 10 10 10 10 10 10 8 6 4 6 7 3 5 6 6 6 8 10 8 8 9 8 8 7 7
4 4 4 4 5 5 4 4 4 4 5 5 6 6 5 5 5 5 6 7 7 6 7 7 5 6 6 6 5 6 7 6 6 7 9 10 8 8 8 8 8 7 6
4 4 4 3 4 4 4 4 3 4 4 4 5 5 4 4 4 5 4 6 5 5 5 5 5 6 6 6 6 6 7 5 6 6 8 9 9 8 8 9 8 7 6
4 4 4 3 3 4 4 3 3 4 4 5 4 4 5 4 4 4 5 5 5 5 5 4 5 6 6 6 6 6 6 6 6 6 7 10 10 9 9 9 9 8 7
4 4 4 3 3 3 3 2 3 3 3 4 4 4 5 4 4 4 4 4 4 4 4 4 5 5 5 5 5 6 6 6 6 6 6 8 10 9 8 8 7 7 7
4 4 4 3 3 3 3 2 2 2 3 3 3 4 4 4 4 4 3 4 4 4 4 4 5 4 4 4 5 5 5 5 5 6 6 5 6 8 8 8 7 7 7
4 4 5 4 3 3 2 2 2 2 2 2 3 3 4 3 3 4 3 3 3 3 3 3 3 3 3 3 4 4 4 4 5 5 5 5 5 5 6 7 7 6 6
5 4 5 5 4 3 3 2 2 2 2 2 2 2 2 3 3 3 2 2 3 2 2 2 2 2 3 3 3 3 3 3 3 4 4 5 5 4 4 5 5 6 5
5 5 5 5 4 4 3 2 2 2 2 2 1 2 2 2 2 2 2 1 2 2 2 2 2 2 2 2 2 2 2 2 2 3 3 3 4 4 4 4 3 3 4
6 5 5 5 4 4 3 2 2 1 1 2 1 2 2 1 2 2 1 1 1 1 1 1 2 2 1 1 1 2 2 1 2 2 2 2 3 3 3 3 3 3 2
6 6 5 5 4 4 2 2 1 1 1 1 1 1 1 1 1 1 1 1 1 1 1 1 1 1 1 0 0 0 1 1 1 1 1 1 2 2 3 3 3 3 3
6 6 5 5 5 4 4 2 2 2 1 1 1 1 1 1 1 0 0 0 1 1 1 0 1 1 1 1 1 1 1 0 0 1 1 1 2 2 2 2 3 3 3
5 5 5 5 5 4 4 3 3 2 2 1 1 1 1 1 1 1 1 1 1 1 1 1 1 1 1 1 0 1 2 1 1 0 1 1 1 1 2 2 2 3 3
4 4 4 5 5 5 4 4 3 3 2 1 1 1 1 1 1 1 1 2 1 1 1 1 1 2 2 2 1 0 1 1 3 2 1 1 0 0 1 1 2 2 3
5 5 5 5 5 5 5 5 4 3 3 2 2 1 1 1 1 1 2 2 2 2 2 2 2 3 2 2 2 1 1 1 2 2 2 2 1 1 1 1 1 2 2
Wind_Direction
23 23 41 8 25 35 45 54 61 61 67 72 79 77 73 71 72 77 84 91 92 92 95 97 97 100 104 102 106 112 117 126 128 128 123 122 123 124 123 124 139 130 117
30 33 50 25 40 53 66 66 67 65 67 72 78 77 76 75 72 72 77 87 89 89 90 91 95 98 102 100 96 101 109 119 124 125 129 136 126 120 121 125 114 106 113
44 47 72 59 56 66 67 69 69 67 68 70 73 72 72 74 74 72 73 81 85 87 90 92 93 93 95 94 92 93 99 104 112 126 152 148 130 123 118 119 113 115 119
55 57 62 61 59 62 65 68 71 69 69 70 69 67 66 69 71 73 74 76 83 87 92 94 91 88 88 86 87 91 107 103 109 148 160 128 128 116 116 116 117 119 125
65 63 68 55 60 63 65 69 70 70 72 72 69 66 64 67 69 71 72 69 72 79 85 90 90 89 88 85 76 78 103 102 112 148 105 103 103 106 108 107 113 119 123
72 68 72 56 59 64 68 70 71 72 74 75 72 68 67 67 68 68 67 68 70 72 75 81 87 87 85 84 80 79 92 94 117 93 93 107 107 102 106 106 110 116 121
75 69 75 63 59 60 66 72 74 74 75 76 74 70 70 71 71 72 69 70 74 77 75 76 80 83 80 78 78 77 80 78 81 83 83 88 89 90 96 93 96 109 116
79 77 82 81 68 64 65 72 74 75 74 74 73 70 70 71 72 71 69 69 76 78 74 74 79 80 78 78 78 76 70 42 87 80 77 81 82 92 96 96 95 96 93
87 81 79 84 90 88 80 76 75 73 73 74 72 72 72 71 69 69 71 71 78 81 78 76 76 75 77 79 82 81 73 50 73 76 78 79 81 85 93 97 97 95 89
92 85 84 81 80 87 92 85 77 73 73 75 73 71 75 85 80 76 81 77 84 85 81 78 76 76 79 78 78 76 73 71 71 73 72 78 77 77 84 92 92 91 90
99 90 92 89 84 83 84 91 91 89 80 90 94 88 82 76 76 85 73 77 81 83 82 82 81 82 87 86 79 79 81 67 69 64 66 70 70 74 80 88 90 96 96
113 99 92 94 93 89 86 90 81 76 74 63 68 72 68 67 70 80 94 89 88 88 90 84 87 98 92 87 90 89 68 68 66 67 68 66 67 73 78 82 84 89 91
114 108 100 98 96 92 93 83 77 72 71 67 62 72 75 75 83 83 92 104 99 98 85 91 89 72 75 70 63 66 61 57 61 63 65 60 60 67 74 81 82 82 82
125 118 112 110 107 99 93 89 84 79 72 67 64 65 71 72 70 74 76 79 81 77 72 69 66 72 72 74 70 67 65 61 64 68 65 58 57 61 69 73 74 76 79
135 132 120 121 113 106 95 90 89 78 68 72 60 59 68 69 71 77 78 77 74 74 75 72 71 69 65 63 63 61 62 63 66 67 70 63 59 60 64 67 69 70 75
150 138 132 133 126 124 122 110 87 85 87 72 67 67 70 73 74 69 72 74 73 71 69 75 76 73 68 65 62 60 58 61 64 66 70 72 65 58 58 61 63 64 69
156 146 138 140 137 135 118 99 95 91 83 77 77 76 78 70 71 74 71 76 76 80 80 71 75 72 73 74 70 61 57 54 59 63 64 64 73 69 60 54 56 58 59
168 155 146 145 148 135 125 124 109 105 92 80 81 73 78 74 65 68 68 73 79 78 81 79 74 79 78 70 68 65 65 60 55 56 62 61 56 63 72 59 51 52 53
179 170 157 152 153 143 141 131 117 110 102 78 76 69 61 64 66 78 69 64 81 86 79 77 74 74 77 71 76 70 63 59 55 55 57 54 55 51 60 75 66 51 44
183 180 166 156 162 144 147 141 130 118 105 84 60 63 57 51 58 78 93 92 84 88 82 88 84 75 72 77 80 73 58 61 55 51 48 52 45 43 42 43 58 78 59
179 183 174 170 165 154 156 170 164 147 130 110 71 56 75 62 61 78 68 66 65 83 90 107 105 115 104 75 101 94 95 89 66 57 45 45 48 40 42 41 36 36 73
175 184 185 178 170 166 166 170 160 139 137 91 86 86 106 106 86 84 82 87 99 91 92 96 144 157 136 183 277 230 153 146 104 62 58 35 32 46 37 34 38 35 18
177 183 184 179 173 169 165 163 149 138 170 161 152 115 117 121 117 132 104 67 103 136 109 161 195 197 176 164 330 319 308 25 70 155 73 50 38 25 32 29 24 24 17
181 182 186 180 179 170 167 179 185 190 193 203 189 163 171 171 161 177 200 216 196 173 164 205 217 239 236 215 161 313 324 348 275 232 176 88 37 16 17 20 12 21 23
169 174 184 180 178 171 179 183 204 208 208 196 183 187 197 179 197 197 214 215 213 202 202 211 230 259 252 254 239 240 308 290 279 276 270 285 294 31 21 5 5 17 25
166 167 175 182 181 178 190 198 209 206 206 200 203 207 210 193 209 206 221 226 225 221 215 220 219 231 255 256 254 245 246 268 278 273 277 280 296 319 347 358 352 14 16
Height
1524 1522 1520 1519 1518 1517 1517 1517 1516 1516 1516 1516 1516 1516 1515 1515 1515 1515 1515 1515 1515 1515 1516 1516 1516 1516 1517 1517 1517 1517 1518 1518 1519 1520 1521 1521 1522 1523 1524 1524 1525 1526 1526
1524 1522 1520 1519 1519 1518 1518 1517 1517 1517 1517 1516 1516 1516 1516 1516 1515 1515 1516 1516 1516 1516 1516 1516 1517 1517 1517 1517 1517 1517 1518 1519 1519 1520 1521 1522 1523 1523 1524 1525 1525 1526 1526
1524 1523 1522 1520 1519 1519 1519 1518 1518 1518 1518 1517 1517 1517 1517 1517 1516 1516 1516 1517 1517 1517 1517 1517 1517 1518 1518 1518 1517 1517 1518 1519 1520 1521 1522 1523 1524 1524 1524 1525 1526 1526 1527
1525 1524 1523 1521 1521 1520 1520 1519 1519 1519 1518 1518 1518 1518 1518 1517 1517 1517 1517 1517 1517 1517 1518 1518 1518 1518 1518 1518 1517 1515 1516 1518 1520 1521 1523 1524 1525 1524 1525 1525 1526 1527 1527
1526 1525 1524 1523 1522 1522 1521 1521 1520 1520 1519 1519 1519 1519 1518 1518 1518 1518 1518 1518 1518 1518 1518 1518 1518 1519 1519 1518 1517 1513 1513 1518 1520 1522 1523 1524 1524 1524 1525 1525 1526 1527 1527
1527 1527 1525 1524 1524 1523 1522 1522 1521 1521 1521 1520 1520 1520 1519 1519 1519 1519 1519 1519 1519 1519 1519 1519 1520 1519 1519 1519 1518 1516 1516 1519 1521 1523 1523 1524 1524 1524 1525 1526 1526 1527 1527
1529 1528 1527 1526 1525 1524 1523 1523 1523 1522 1522 1522 1521 1521 1520 1520 1520 1520 1520 1520 1520 1520 1520 1520 1520 1520 1521 1520 1520 1519 1520 1521 1522 1523 1523 1524 1524 1524 1525 1526 1526 1527 1527
1530 1529 1528 1527 1526 1526 1525 1524 1524 1524 1523 1523 1522 1522 1521 1521 1521 1521 1521 1521 1521 1521 1522 1522 1522 1522 1522 1522 1521 1522 1522 1522 1523 1524 1524 1525 1524 1525 1525 1526 1526 1527 1527
1531 1531 1530 1529 1528 1527 1526 1526 1526 1525 1525 1524 1524 1523 1523 1522 1522 1522 1522 1522 1523 1523 1523 1523 1523 1523 1523 1523 1523 1523 1523 1523 1524 1525 1525 1525 1525 1525 1526 1526 1526 1527 1527
1532 1532 1531 1531 1530 1530 1529 1528 1527 1527 1527 1526 1526 1525 1524 1524 1523 1522 1523 1523 1524 1524 1524 1524 1524 1524 1524 1524 1524 1524 1524 1525 1525 1525 1526 1526 1525 1526 1526 1526 1527 1527 1527
1533 1533 1532 1532 1532 1532 1531 1530 1530 1529 1529 1528 1528 1527 1526 1526 1524 1524 1524 1524 1525 1525 1526 1526 1526 1525 1525 1526 1526 1526 1526 1527 1526 1527 1527 1526 1526 1526 1526 1526 1527 1527 1527
1534 1534 1534 1533 1533 1533 1533 1532 1532 1532 1531 1531 1530 1529 1528 1527 1526 1525 1525 1526 1526 1527 1527 1527 1527 1527 1527 1528 1528 1527 1528 1528 1528 1528 1528 1527 1527 1527 1527 1527 1527 1527 1527
1535 1535 1535 1535 1534 1534 1534 1534 1534 1533 1533 1532 1532 1531 1530 1529 1528 1528 1528 1528 1529 1529 1529 1529 1529 1529 1529 1529 1529 1529 1529 1529 1529 1529 1528 1528 1528 1528 1527 1527 1527 1527 1527
1536 1536 1536 1536 1536 1535 1535 1535 1535 1535 1535 1534 1534 1533 1532 1531 1531 1531 1530 1530 1530 1530 1530 1530 1530 1530 1530 1530 1531 1531 1530 1530 1530 1530 1529 1529 1529 1528 1528 1528 1528 1527 1527
1536 1536 1536 1536 1537 1537 1536 1536 1536 1536 1536 1536 1534 1534 1533 1533 1533 1533 1532 1532 1532 1532 1532 1531 1531 1531 1531 1531 1531 1531 1531 1531 1531 1531 1530 1530 1529 1529 1529 1529 1528 1528 1527
1536 1537 1537 1537 1537 1537 1537 1538 1538 1538 1537 1537 1536 1535 1535 1535 1535 1534 1534 1534 1533 1533 1533 1533 1533 1532 1532 1532 1532 1532 1532 1532 1532 1531 1531 1531 1530 1530 1530 1529 1529 1528 1528
1537 1537 1537 1538 1538 1538 1539 1539 1539 1538 1539 1538 1538 1537 1537 1536 1536 1536 1536 1535 1535 1535 1534 1534 1534 1533 1533 1533 1533 1533 1532 1532 1533 1532 1532 1531 1531 1530 1530 1529 1529 1528 1528
1536 1537 1537 1538 1538 1539 1539 1539 1539 1539 1539 1539 1539 1539 1538 1538 1537 1537 1536 1536 1536 1536 1535 1535 1535 1534 1534 1534 1534 1533 1533 1533 1533 1532 1532 1532 1531 1531 1530 1529 1529 1528 1527
1536 1537 1537 1538 1538 1539 1539 1539 1539 1540 1539 1540 1539 1539 1539 1538 1538 1538 1537 1537 1537 1536 1536 1536 1535 1535 1535 1534 1534 1534 1534 1533 1533 1533 1532 1532 1531 1531 1530 1529 1528 1528 1527
1535 1536 1537 1537 1538 1538 1539 1539 1539 1540 1540 1540 1540 1539 1539 1539 1538 1538 1537 1537 1537 1537 1536 1536 1535 1535 1535 1534 1535 1534 1534 1533 1533 1533 1532 1532 1532 1531 1530 1529 1529 1527 1526
1533 1535 1536 1537 1538 1538 1538 1539 1539 1539 1539 1539 1539 1539 1539 1538 1538 1538 1538 1537 1537 1537 1536 1536 1535 1535 1535 1535 1535 1535 1534 1534 1534 1533 1533 1532 1532 1531 1530 1529 1528 1527 1526
1532 1534 1535 1536 1537 1537 1537 1538 1538 1538 1539 1539 1538 1538 1538 1538 1538 1538 1537 1537 1536 1536 1536 1536 1535 1535 1535 1535 1535 1535 1535 1536 1534 1533 1533 1532 1531 1530 1529 1529 1528 1527 1526
1531 1533 1534 1535 1536 1536 1537 1537 1537 1537 1538 1538 1538 1538 1538 1538 1537 1537 1537 1536 1536 1536 1536 1535 1535 1534 1534 1534 1534 1535 1535 1534 1534 1534 1533 1532 1531 1530 1529 1528 1527 1526 1525
1530 1531 1533 1534 1535 1535 1536 1536 1536 1537 1537 1538 1538 1537 1537 1537 1537 1536 1536 1535 1535 1535 1535 1535 1535 1534 1534 1534 1533 1533 1534 1533 1534 1533 1533 1532 1531 1530 1529 1527 1526 1525 1524
1528 1529 1531 1533 1534 1534 1535 1535 1535 1536 1536 1536 1536 1536 1536 1536 1536 1535 1535 1534 1534 1534 1534 1534 1533 1533 1533 1533 1533 1533 1532 1532 1532 1532 1531 1531 1530 1529 1528 1527 1526 1525 1523
1526 1527 1529 1530 1532 1532 1533 1534 1534 1535 1535 1535 1535 1535 1535 1535 1534 1534 1533 1533 1533 1533 1532 1532 1532 1531 1532 1532 1532 1532 1532 1531 1531 1531 1530 1530 1529 1528 1527 1526 1525 1524 1522